Find Starlink 33993

NORAD ID: 63949 Int'l Des: 2025-098 Owner: SPXS Country: US Constellation: starlink operational
LEOCIRCULAR

現在のビュー

3D地球を読み込み中...

About Starlink 33993

Starlink 33993 (NORAD 63949) is a starlink constellation satellite (v2 mini) launched May 13, 2025 by SPXS of US. It operates in LEO, CIRCULAR orbit with a mass of 575.00 kg.

Starlink 33993について

説明を読み込み中...

次回通過

Passes for default location (London). Set your location on the main map for personalized predictions.

高度履歴

Loading altitude history...

軌道要素

1 63949U 25098Z 26194.64821875 .00001708 00000-0 15089-3 0 9990
2 63949 70.0025 316.7049 0003080 267.0608 93.0198 14.98334768 65416
Epoch: Jul 13, 2026 • Age: 10 hours

現在のステータス

高度 581.9 km
遠地点 / 近地点 N/A
速度 7.57 km/s
衛星直下点 52.73°N, 30.73°E
打ち上げ日 May 13, 2025
運用期間 1.1 years
タイプ internet

技術仕様

分類 Payload
質量 575.00 kg
乾燥質量 530.00 kg
総質量 575.00 kg
長さ 0.30 m
直径 4.10 m
スパン 29.00 m
形状 Box + pan
製造者 SPXS
バスタイプ Starlink V2MO
フェーズステータス In Orbit
所有者/国 SPXS/US

Most Searched